This is the latest recevied weather packets stored in our database for station/object WI0K. If no packets are shown the sender has not sent any weather packets the latest 10 day(s).
| Time | Temp. | Humidity | Pressure | Rain* | Wind** | Luminosity | Snow |
|---|---|---|---|---|---|---|---|
| 1788204959 | 27.22° C | 35% | 1021.4 hPa | 0 mm | - | 362 W/m² | - |
| 1788204659 | 27.22° C | 34% | 1021.5 hPa | 0 mm | - | 427 W/m² | - |
| 1788204358 | 27.22° C | 37% | 1021.5 hPa | 0 mm | - | 503 W/m² | - |
| 1788204057 | 27.22° C | 35% | 1021.5 hPa | 0 mm | - | 424 W/m² | - |
| 1788203756 | 26.67° C | 36% | 1021.6 hPa | 0 mm | - | 412 W/m² | - |
| 1788203456 | 26.67° C | 33% | 1021.6 hPa | 0 mm | - | 364 W/m² | - |
| 1788203155 | 26.67° C | 41% | 1021.7 hPa | 0 mm | - | 413 W/m² | - |
| 1788202854 | 26.67° C | 34% | 1021.8 hPa | 0 mm | - | 456 W/m² | - |
| 1788202554 | 26.67° C | 34% | 1021.8 hPa | 0 mm | - | 371 W/m² | - |
| 1788202253 | 26.11° C | 40% | 1021.9 hPa | 0 mm | - | 383 W/m² | - |
| 1788201952 | 26.11° C | 40% | 1021.9 hPa | 0 mm | - | 417 W/m² | - |
| 1788201651 | 26.67° C | 41% | 1021.9 hPa | 0 mm | - | 423 W/m² | - |
| 1788201351 | 26.67° C | 34% | 1021.9 hPa | 0 mm | - | 442 W/m² | - |
| 1788201050 | 26.67° C | 37% | 1021.9 hPa | 0 mm | - | 440 W/m² | - |
| 1788200749 | 26.67° C | 37% | 1021.9 hPa | 0 mm | - | 429 W/m² | - |
| 1788200448 | 26.11° C | 34% | 1021.9 hPa | 0 mm | - | 443 W/m² | - |
| 1788200148 | 26.11° C | 35% | 1022.1 hPa | 0 mm | - | 471 W/m² | - |
| 1788199847 | 26.11° C | 34% | 1022.1 hPa | 0 mm | - | 462 W/m² | - |
| 1788199546 | 26.11° C | 35% | 1022.1 hPa | 0 mm | - | 452 W/m² | - |
| 1788199246 | 26.11° C | 35% | 1022.2 hPa | 0 mm | - | 458 W/m² | - |
| 1788198945 | 26.11° C | 36% | 1022.2 hPa | 0 mm | - | 478 W/m² | - |
| 1788198644 | 25.56° C | 36% | 1022.2 hPa | 0 mm | - | 470 W/m² | - |
| 1788198343 | 25.56° C | 39% | 834.6 hPa | 0 mm | - | 455 W/m² | - |
| 1788198043 | 25° C | 37% | 834.7 hPa | 0 mm | - | 418 W/m² | - |
| 1788197742 | 25° C | 40% | 1022.3 hPa | 0 mm | - | 412 W/m² | - |
* Rain latest hour (hover to see other rain measurements)
** Current wind speed in m/s (hover to see current wind gust speed)